Date String (YYYY-MM-DD hh:mm:ss) UTC,Instrument flags,Ambient pressure (hPa),Sample flow (lpm),Bypass flow (lpm),Sample temperature (°C),Ambient temperature (°C),ASC tube jacket temperature (°C),LED temperature (°C),Box temperature (°C),Sample RH (%),Span deviation,Mass concentration (μg/m³),Mass concentration (μg/m³),Mass concentration (μg/m³)
DateTimeUTC,F1_M11,P_M11,Q1_M11,Q2_M11,T1_M11,T2_M11,T3_M11,T4_M11,T5_M11,U1_M11,ZSPAN_M11,X0_M11,X2_M11,X1_M11
2021-09-03 10:00:00,,0828.8,4.99,0.00,30.2,29.3,00.0,39.2,32.0,28.1,0001.6,0020.40,0016.37,0015.86
2021-09-03 10:01:00,,0829.2,5.00,0.00,30.2,29.2,00.0,39.2,32.0,28.0,0001.6,0020.24,0016.42,0015.92
2021-09-03 10:02:00,,0829.4,5.01,0.00,30.1,27.6,00.0,39.2,31.5,28.2,0001.6,0020.56,0016.45,0015.96
2021-09-03 10:03:00,,0829.3,4.99,0.00,30.0,26.5,00.0,39.2,31.3,28.5,0001.5,0020.60,0016.51,0016.00
2021-09-03 10:04:00,,0829.1,5.00,0.00,29.9,26.5,00.0,39.1,31.2,28.9,0001.6,0020.43,0016.52,0016.02
2021-09-03 10:05:00,,0829.3,4.99,0.00,29.8,26.9,00.0,39.1,31.3,29.1,0001.7,0020.21,0016.57,0016.07
2021-09-03 10:06:00,,0829.3,5.00,0.00,29.7,27.3,00.0,39.0,31.3,29.1,0001.6,0020.26,0016.63,0016.13
2021-09-03 10:07:00,,0829.4,5.01,0.00,29.7,27.7,00.0,39.0,31.3,29.1,0001.3,0020.31,0016.68,0016.20
2021-09-03 10:08:00,,0829.3,4.99,0.00,29.8,27.9,00.0,39.0,31.4,29.0,0001.4,0020.41,0016.75,0016.28
2021-09-03 10:09:00,,0829.4,5.01,0.00,29.8,28.2,00.0,39.0,31.4,28.9,0001.4,0019.84,0016.80,0016.32
2021-09-03 10:10:00,,0829.3,4.99,0.00,29.8,28.3,00.0,38.9,31.5,28.9,0001.7,0019.79,0016.84,0016.38
2021-09-03 10:11:00,,0829.2,5.00,0.00,29.8,28.5,00.0,39.0,31.5,28.9,0001.9,0019.82,0016.89,0016.41
2021-09-03 10:12:00,,0828.9,5.00,0.00,29.8,28.6,00.0,39.0,31.6,28.8,0002.0,0019.71,0016.93,0016.45
2021-09-03 10:13:00,,0828.7,4.99,0.00,29.8,28.7,00.0,39.0,31.6,28.7,0002.1,0019.52,0017.01,0016.50
2021-09-03 10:14:00,,0828.7,5.02,0.00,29.9,28.8,00.0,39.0,31.6,28.7,0002.0,0019.61,0017.07,0016.54
2021-09-03 10:15:00,,0828.7,5.00,0.00,29.9,28.8,00.0,39.0,31.7,28.6,0001.8,0019.57,0017.11,0016.60
2021-09-03 10:16:00,,0828.7,4.99,0.00,29.9,28.9,00.0,39.0,31.7,28.6,0001.8,0019.55,0017.13,0016.65
2021-09-03 10:17:00,,0828.7,5.00,0.00,29.9,29.0,00.0,39.0,31.7,28.7,0002.0,0019.52,0017.16,0016.68
2021-09-03 10:18:00,,0828.9,4.99,0.00,30.0,29.0,00.0,39.0,31.7,28.6,0002.3,0020.02,0017.21,0016.69
2021-09-03 10:19:00,,0829.2,5.00,0.00,30.0,29.0,00.0,39.0,31.8,28.3,0002.5,0020.28,0017.20,0016.69
2021-09-03 10:20:00,,0829.2,4.99,0.00,30.0,29.1,00.0,39.0,31.8,28.1,0002.6,0020.36,0017.20,0016.69
2021-09-03 10:21:00,,0828.9,5.00,0.00,30.0,29.1,00.0,39.0,31.8,28.0,0002.4,0020.41,0017.21,0016.67
2021-09-03 10:22:00,,0828.7,4.99,0.00,30.0,29.2,00.0,39.1,31.8,28.1,0002.2,0020.42,0017.19,0016.66
2021-09-03 10:23:00,,0828.7,5.01,0.00,30.1,29.2,00.0,39.1,31.8,28.3,0002.0,0020.43,0017.15,0016.63
2021-09-03 10:24:00,,0828.8,5.00,0.00,30.1,29.2,00.0,39.1,31.9,28.4,0001.8,0020.36,0017.12,0016.62
2021-09-03 10:25:00,,0828.9,5.00,0.00,30.1,29.2,00.0,39.1,31.9,27.9,0002.1,0020.37,0017.09,0016.59
2021-09-03 10:26:00,,0829.3,5.01,0.00,30.1,29.3,00.0,39.1,31.9,27.9,0002.0,0020.52,0017.08,0016.55
2021-09-03 10:27:00,,0829.3,4.99,0.00,30.2,29.3,00.0,39.2,31.9,27.8,0002.0,0020.65,0017.04,0016.50
2021-09-03 10:28:00,,0829.0,5.01,0.00,30.2,29.3,00.0,39.2,32.0,27.7,0002.0,0020.61,0016.96,0016.42
2021-09-03 10:29:00,,0829.1,5.00,0.00,30.2,29.3,00.0,39.2,32.0,27.7,0001.9,0020.05,0016.92,0016.38
2021-09-03 10:30:00,,0829.2,4.99,0.00,30.2,29.1,00.0,39.2,31.9,27.7,0001.8,0019.89,0016.88,0016.32
2021-09-03 10:31:00,,0829.3,5.01,0.00,30.1,27.2,00.0,39.2,31.5,27.8,0001.7,0020.64,0016.81,0016.27
2021-09-03 10:32:00,,0829.1,5.00,0.00,30.0,26.3,00.0,39.2,31.3,28.1,0001.7,0020.84,0016.79,0016.25
2021-09-03 10:33:00,,0829.0,5.01,0.00,29.9,26.6,00.0,39.1,31.3,28.3,0001.6,0021.06,0016.80,0016.24
2021-09-03 10:34:00,,0828.8,4.99,0.00,29.8,27.0,00.0,39.1,31.3,28.4,0001.7,0021.25,0016.78,0016.21
2021-09-03 10:35:00,,0828.8,5.01,0.00,29.8,27.4,00.0,39.0,31.3,28.4,0001.9,0021.19,0016.74,0016.16
2021-09-03 10:36:00,,0829.1,5.00,0.00,29.8,27.7,00.0,39.0,31.4,28.3,0001.8,0021.25,0016.69,0016.12
2021-09-03 10:37:00,,0829.0,4.99,0.00,29.8,28.0,00.0,39.0,31.4,28.3,0002.0,0021.21,0016.67,0016.10
2021-09-03 10:38:00,,0829.2,5.00,0.00,29.8,28.2,00.0,39.0,31.5,28.3,0002.0,0021.00,0016.61,0016.06
2021-09-03 10:39:00,,0829.2,5.01,0.00,29.8,28.4,00.0,39.0,31.5,28.3,0002.1,0020.87,0016.57,0016.04
2021-09-03 10:40:00,,0829.4,4.99,0.00,29.8,28.5,00.0,39.0,31.5,28.3,0002.0,0020.83,0016.53,0016.01
2021-09-03 10:41:00,,0829.3,5.01,0.00,29.8,28.6,00.0,39.0,31.5,28.3,0002.0,0020.71,0016.49,0016.00
2021-09-03 10:42:00,,0829.4,5.00,0.00,29.9,28.7,00.0,39.0,31.6,28.3,0002.2,0019.99,0016.50,0016.00
2021-09-03 10:43:00,,0829.1,5.00,0.00,29.9,28.8,00.0,39.0,31.6,28.3,0002.2,0019.61,0016.47,0015.98
2021-09-03 10:44:00,,0829.1,4.99,0.00,29.9,28.9,00.0,39.0,31.7,28.1,0002.3,0019.63,0016.41,0015.93
2021-09-03 10:45:00,,0828.8,5.00,0.00,29.9,28.9,00.0,39.0,31.7,28.1,0002.3,0019.55,0016.36,0015.90
2021-09-03 10:46:00,,0828.7,5.01,0.00,29.9,29.0,00.0,39.0,31.7,28.0,0002.2,0020.09,0016.37,0015.90
2021-09-03 10:47:00,,0828.8,4.99,0.00,30.0,29.0,00.0,39.0,31.7,28.0,0002.3,0019.92,0016.36,0015.90
2021-09-03 10:48:00,,0828.7,5.01,0.00,30.0,29.1,00.0,39.0,31.8,28.0,0002.2,0019.72,0016.33,0015.90
2021-09-03 10:49:00,,0828.7,5.00,0.00,30.0,29.1,00.0,39.0,31.7,28.0,0001.9,0019.83,0016.35,0015.91
2021-09-03 10:50:00,,0828.7,5.00,0.00,30.0,29.1,00.0,39.1,31.8,28.0,0001.9,0020.04,0016.40,0015.92
2021-09-03 10:51:00,,0828.8,5.00,0.00,30.0,29.2,00.0,39.1,31.9,27.9,0001.9,0019.97,0016.39,0015.92
2021-09-03 10:52:00,,0828.8,5.00,0.00,30.1,29.2,00.0,39.1,31.9,27.8,0001.8,0020.00,0016.39,0015.93
2021-09-03 10:53:00,,0828.7,4.98,0.00,30.1,29.2,00.0,39.1,31.9,27.8,0001.7,0020.11,0016.42,0015.94
2021-09-03 10:54:00,,0828.7,5.01,0.00,30.1,29.2,00.0,39.1,31.9,27.8,0001.7,0020.14,0016.45,0015.97
2021-09-03 10:55:00,,0828.8,5.00,0.00,30.1,29.2,00.0,39.1,31.9,27.8,0001.8,0019.97,0016.48,0016.01
2021-09-03 10:56:00,,0829.0,5.00,0.00,30.2,29.2,00.0,39.2,32.0,27.8,0001.9,0019.82,0016.53,0016.05
2021-09-03 10:57:00,,0828.9,5.00,0.00,30.2,29.2,00.0,39.2,32.0,27.6,0001.9,0019.18,0016.53,0016.04
2021-09-03 10:58:00,,0828.9,4.99,0.00,30.2,29.3,00.0,39.2,32.0,27.6,0001.9,0019.26,0016.55,0016.05
2021-09-03 10:59:00,,0828.8,4.99,0.00,30.2,29.3,00.0,39.2,32.0,27.6,0001.8,0019.30,0016.58,0016.08
